Location: Prague
(50.0830°N, 14.4670°E)
Time: 00:52:11
(UTC+02:00)

Envisat - Pass Details

Date: 27 September 2021
Orbit: 764 x 766 km, 98.2° (Epoch: 20 October)

Event Time Altitude Azimuth Distance (km) Brightness Sun altitude
Rises 04:42:11 0° 30° (NNE) 3,243 7.1 -21.7°
Reaches altitude 10° 04:45:56 10° 59° (ENE) 2,309 6.6 -21.1°
Maximum altitude 04:48:10 13° 85° (E) 2,114 6.2 -20.8°
Drops below altitude 10° 04:50:24 10° 111° (ESE) 2,301 6.1 -20.5°
Sets 04:54:06 0° 140° (SE) 3,220 6.5 -19.9°
